STARLINK-34712, 64907

Orbit data source: Space-Track

STARLINK-34712, 64907 is a payload satellite owned by SpaceX/Seattle (US) in LEO that was launched on Sat, 26 Jul 2025 UTC via an FALCON 9 launch vehicle from the Air Force Eastern Test Range (AFETR). Payload-class satellites include a variety of spacecraft equipped with specific instruments for various scientific and technological missions. These include communications satellites like Starlink; space stations such as the ISS; scientific satellites like the Hubble; Earth observation satellites from companies like Planet Labs, Umbra, and HawkEye 360; GPS; miniature CubeSats for education and research; and military/defense satellites.

Loading next visibility...
Identifier
64907, 2025-157D
Orbit
LEO
Country
Flag of USUS
Related business
Manufacturer
SpaceX/Seattle
Mission
Operational Commercial Communications
Bus & Motor
STARLINK V2MO, Unknown motor
Mass
575 kg wet, ~530 kg dry
Launch date (UTC)
2025-07-26 (4 months ago)
Launch vehicle
FALCON 9
Launch site
Air Force Eastern Test Range (AFETR)
Object type
Payload
Rocket body
Debris
Shape & HBR
Box + 2 Pan, 17.7 m
Radar Cross Section
36.964 m², Large (>1 m²)

Expand to show TLE details & history
Last TLE update: 14 hours ago

TLE from 14 hours ago
0 STARLINK-34712
1 64907U 25157D   25340.60735165  .00068248  00000-0  16982-2 0  9999
2 64907  53.1606  62.2077 0001566 189.4210 170.6766 15.39670110 21814
Epoch: 2025-12-06T14:34Z
TLE epoch observation values (Epoch: 2025-12-06T14:34:35.182Z)
Latitude
-0.00001°
Longitude
127.92844°
Altitude
449.042 km
Speed
7.643 km/s
True Right ascension
04h 08m 49s
True Declination
0° 00' 00"
Sunlit
Object was in full shadow at epoch
Visualization orbit readout
Latitude
Unknown
Longitude
Unknown
Altitude
Unknown
Speed
Unknown
Apparent Right ascension
Unknown
Apparent Declination
Unknown
Sunlit
N/A
Visualization observer readout
Local Sidereal Time
02:31:51
Azimuth
Unknown
Elevation
Unknown
Doppler factor
Unknown
Orbital elements
Apogee altitude
448.41 km
Perigee altitude
446.273 km
Semi-major axis
6,825.478 km
Eccentricity
0.00016
Inclination
53.1606°
RAAN
62.2077°
Arg. of periapsis
189.421°
True anomaly
170.67951°
Mean anomaly
170.6766°
Eccentric anomaly
170.67805°
Mean motion
3.84896 °/min
Orbital period
93.53 mins
BSTAR
0.0016982
Loading maneuver chart data...
Computing Atmospheric mass density...
Loading historical data...
Loading historical data...
Loading historical data...
Loading historical data...
Loading historical data...
Loading historical data...
Loading historical data...

Documentation

Showing up to 5 results
|